N7QNM-13 Weather Reports


time (UTC)temp
C
wind
direction
speed
KPH
gust
KPH
rain 1hr
cm
rain 24hr
cm
rain mn
cm
humidity
%
barometer
mb
20260510130539 6 0.0 0.0 0.00 0.00 0.00 84 1014.1
20260510125539 6 116 0.0 1.6 0.00 0.00 0.00 83 1014.0
20260510124540 6 0.0 0.0 0.00 0.00 0.00 83 1014.0
20260510123540 6 240 0.0 3.2 0.00 0.00 0.00 82 1013.9
20260510122540 6 0.0 0.0 0.00 0.00 0.00 82 1013.8
20260510121540 6 324 0.0 1.6 0.00 0.00 0.00 82 1013.8
20260510120540 6 0.0 0.0 0.00 0.00 0.00 81 1014.0
20260510115600 6 0.0 0.0 0.00 0.00 0.00 81 1014.0
20260510114541 6 0.0 0.0 0.00 0.00 0.00 80 1014.0
20260510113540 6 0.0 0.0 0.00 0.00 0.00 80 1014.0
20260510112542 6 0.0 0.0 0.00 0.00 0.00 79 1014.0
20260510111546 6 0.0 0.0 0.00 0.00 0.00 79 1014.2
20260510110541 7 51 0.0 1.6 0.00 0.00 0.00 78 1014.1
20260510105541 7 0.0 0.0 0.00 0.00 0.00 78 1014.1
20260510104601 7 0.0 0.0 0.00 0.00 0.00 78 1014.2
20260510103541 7 243 0.0 3.2 0.00 0.00 0.00 77 1014.2
20260510102541 7 0.0 0.0 0.00 0.00 0.00 76 1014.3
20260510101541 8 0.0 0.0 0.00 0.00 0.00 76 1014.3
20260510100541 7 0.0 0.0 0.00 0.00 0.00 76 1014.4
20260510095541 8 162 0.0 0.0 0.00 0.00 0.00 75 1014.4
20260510094601 8 83 0.0 1.6 0.00 0.00 0.00 74 1014.5
20260510093542 8 0.0 0.0 0.00 0.00 0.00 74 1014.5
20260510092541 9 0.0 0.0 0.00 0.00 0.00 73 1014.6
20260510091542 9 90 0.0 1.6 0.00 0.00 0.00 72 1014.7
20260510090602 10 120 0.0 1.6 0.00 0.00 0.00 72 1014.8
20260510085542 10 148 0.0 1.6 0.00 0.00 0.00 70 1014.8
20260510084602 10 0.0 0.0 0.00 0.00 0.00 70 1014.7
20260510083544 10 194 0.0 1.6 0.00 0.00 0.00 69 1014.7
20260510082542 10 168 0.0 1.6 0.00 0.00 0.00 69 1014.7
20260510081542 11 117 0.0 3.2 0.00 0.00 0.00 68 1014.8
20260510080543 11 87 0.0 4.8 0.00 0.00 0.00 68 1014.7
20260510075543 10 160 1.6 3.2 0.00 0.00 0.00 69 1014.9
20260510074543 10 166 0.0 3.2 0.00 0.00 0.00 71 1014.9
20260510073543 10 238 3.2 4.8 0.00 0.00 0.00 72 1014.9
20260510072603 10 252 3.2 6.4 0.00 0.00 0.00 70 1014.8
20260510071543 10 0.0 0.0 0.00 0.00 0.00 69 1014.7
20260510070543 10 0.0 0.0 0.00 0.00 0.00 68 1014.7
20260510065543 11 0.0 0.0 0.00 0.00 0.00 67 1014.7
20260510064545 11 115 0.0 3.2 0.00 0.00 0.00 65 1014.8
20260510063544 11 150 0.0 1.6 0.00 0.00 0.00 64 1014.9
20260510062544 12 150 0.0 3.2 0.00 0.00 0.00 63 1014.8
20260510061544 12 120 0.0 3.2 0.00 0.00 0.00 61 1014.8
20260510060544 13 0.0 0.0 0.00 0.00 0.00 59 1014.9
20260510055544 14 117 0.0 3.2 0.00 0.00 0.00 56 1014.9
20260510054544 15 0.0 0.0 0.00 0.00 0.00 56 1014.9
20260510053545 15 164 0.0 0.0 0.00 0.00 0.00 55 1014.8
20260510052545 16 0.0 0.0 0.00 0.00 0.00 53 1014.8
20260510051544 16 141 0.0 3.2 0.00 0.00 0.00 52 1014.8
20260510050545 16 104 0.0 3.2 0.00 0.00 0.00 52 1015.0
20260510045545 17 94 0.0 3.2 0.00 0.00 0.00 51 1015.1
20260510044545 17 116 1.6 4.8 0.00 0.00 0.00 50 1015.1
20260510043545 18 0.0 0.0 0.00 0.00 0.00 48 1015.2
20260510042545 18 0.0 0.0 0.00 0.00 0.00 47 1015.1
20260510041605 18 0.0 0.0 0.00 0.00 0.00 45 1015.0
20260510040545 19 87 1.6 6.4 0.00 0.00 0.00 43 1014.9
20260510035605 20 92 1.6 6.4 0.00 0.00 0.00 41 1014.9
20260510034545 21 61 0.0 6.4 0.00 0.00 0.00 40 1014.9
20260510033546 21 75 1.6 4.8 0.00 0.00 0.00 38 1015.0
20260510032606 21 61 3.2 11.3 0.00 0.00 0.00 38 1014.9
20260510031546 21 55 4.8 9.7 0.00 0.00 0.00 40 1014.9
20260510030546 21 63 4.8 12.9 0.00 0.00 0.00 39 1014.8
20260510025547 21 66 4.8 11.3 0.00 0.00 0.00 39 1014.8
20260510024546 22 92 3.2 8.0 0.00 0.00 0.00 41 1014.9
20260510023547 22 69 1.6 6.4 0.00 0.00 0.00 42 1014.8
20260510022546 22 56 3.2 11.3 0.00 0.00 0.00 42 1014.7
20260510021547 23 55 8.0 17.7 0.00 0.00 0.00 40 1014.6
20260510020547 23 39 4.8 14.5 0.00 0.00 0.00 41 1014.7
20260510015547 24 55 3.2 12.9 0.00 0.00 0.00 38 1014.8
20260510014547 24 58 6.4 16.1 0.00 0.00 0.00 38 1014.8
20260510013547 25 59 6.4 16.1 0.00 0.00 0.00 38 1014.9
20260510012547 25 38 4.8 11.3 0.00 0.00 0.00 38 1014.9
20260510011547 25 40 4.8 9.7 0.00 0.00 0.00 30 1014.9
20260510010547 25 41 1.6 6.4 0.00 0.00 0.00 27 1015.0
20260510005547 25 26 0.0 3.2 0.00 0.00 0.00 26 1015.0
20260510004548 26 31 1.6 6.4 0.00 0.00 0.00 26 1015.1
20260510003548 25 41 3.2 8.0 0.00 0.00 0.00 26 1015.2
20260510002548 25 40 3.2 9.7 0.00 0.00 0.00 27 1015.3
20260510001548 25 41 3.2 11.3 0.00 0.00 0.00 27 1015.3
20260510000548 26 42 1.6 6.4 0.00 0.00 0.00 26 1015.5
20260509235548 26 47 3.2 9.7 0.00 0.00 0.00 27 1015.6
20260509234548 25 43 3.2 11.3 0.00 0.00 0.00 28 1015.6
20260509233548 25 29 4.8 9.7 0.00 0.00 0.00 29 1015.7
20260509232549 25 32 1.6 4.8 0.00 0.00 0.00 30 1015.8
20260509231549 25 35 3.2 11.3 0.00 0.00 0.00 30 1015.9
20260509230549 25 32 3.2 11.3 0.00 0.00 0.00 31 1016.0
20260509225609 25 21 1.6 11.3 0.00 0.00 0.00 32 1016.1
20260509224549 25 353 1.6 8.0 0.00 0.00 0.00 33 1016.3
20260509223609 25 320 0.0 4.8 0.00 0.00 0.00 33 1016.5
20260509222550 25 343 1.6 6.4 0.00 0.00 0.00 35 1016.6
20260509221550 25 320 3.2 9.7 0.00 0.00 0.00 35 1016.8
20260509220550 25 320 3.2 8.0 0.00 0.00 0.00 35 1017.0
20260509215550 25 338 1.6 4.8 0.00 0.00 0.00 35 1017.1
20260509214550 25 40 3.2 11.3 0.00 0.00 0.00 36 1017.2
20260509213550 25 44 3.2 14.5 0.00 0.00 0.00 37 1017.3
20260509212610 25 34 4.8 12.9 0.00 0.00 0.00 37 1017.4
20260509211610 25 173 4.8 11.3 0.00 0.00 0.00 38 1017.4
20260509210610 24 115 1.6 14.5 0.00 0.00 0.00 38 1017.5
20260509205550 24 129 4.8 16.1 0.00 0.00 0.00 39 1017.6
20260509204551 23 320 4.8 11.3 0.00 0.00 0.00 38 1017.7
20260509203611 23 38 3.2 12.9 0.00 0.00 0.00 39 1017.8
20260509202611 23 44 4.8 14.5 0.00 0.00 0.00 39 1017.9
20260509201551 23 55 4.8 17.7 0.00 0.00 0.00 39 1018.0
20260509200551 23 37 4.8 14.5 0.00 0.00 0.00 39 1018.1
20260509195551 23 55 0.0 4.8 0.00 0.00 0.00 40 1018.3
20260509194551 22 58 3.2 9.7 0.00 0.00 0.00 41 1018.3
20260509193552 22 21 3.2 11.3 0.00 0.00 0.00 42 1018.5
20260509192611 22 52 1.6 11.3 0.00 0.00 0.00 42 1018.7
20260509191552 21 29 3.2 16.1 0.00 0.00 0.00 44 1018.8
20260509190552 21 4 3.2 11.3 0.00 0.00 0.00 44 1018.9
20260509185553 21 39 3.2 14.5 0.00 0.00 0.00 45 1018.9
20260509184553 21 2 3.2 11.3 0.00 0.00 0.00 45 1019.0
20260509183553 21 34 1.6 9.7 0.00 0.00 0.00 47 1019.0
20260509182553 21 1 0.0 4.8 0.00 0.00 0.00 48 1019.2
20260509181553 21 327 1.6 4.8 0.00 0.00 0.00 47 1019.4
20260509180554 20 292 1.6 9.7 0.00 0.00 0.00 49 1019.5
20260509175556 20 43 3.2 14.5 0.00 0.00 0.00 49 1019.5
20260509174554 20 294 3.2 9.7 0.00 0.00 0.00 47 1019.6
20260509173554 19 280 6.4 11.3 0.00 0.00 0.00 47 1019.7
20260509172554 18 257 4.8 8.0 0.00 0.00 0.00 48 1019.8
20260509171554 18 298 3.2 9.7 0.00 0.00 0.00 49 1019.9
20260509170554 18 290 4.8 12.9 0.00 0.00 0.00 49 1020.1
20260509165554 17 289 6.4 14.5 0.00 0.00 0.00 51 1020.1
20260509164555 17 294 8.0 14.5 0.00 0.00 0.00 50 1020.1
20260509163555 17 310 0.0 6.4 0.00 0.00 0.00 51 1020.1
20260509162555 17 256 4.8 14.5 0.00 0.00 0.00 51 1019.9
20260509161605 16 308 1.6 9.7 0.00 0.00 0.00 53 1019.9
20260509160555 16 302 6.4 14.5 0.00 0.00 0.00 54 1020.0
20260509155555 16 298 4.8 11.3 0.00 0.00 0.00 55 1020.1
20260509154616 16 300 6.4 11.3 0.00 0.00 0.00 56 1020.3
20260509153555 16 301 1.6 9.7 0.00 0.00 0.00 56 1020.3
20260509152555 15 301 1.6 12.9 0.00 0.00 0.00 57 1020.3
20260509151556 15 270 8.0 14.5 0.00 0.00 0.00 58 1020.3
20260509150555 15 247 3.2 8.0 0.00 0.00 0.00 60 1020.4
20260509145556 14 246 3.2 6.4 0.00 0.00 0.00 62 1020.5
20260509144555 13 215 0.0 3.2 0.00 0.00 0.00 66 1020.5
20260509143616 11 210 0.0 4.8 0.00 0.00 0.00 70 1020.4
20260509142556 11 263 8.0 9.7 0.00 0.00 0.00 71 1020.2
20260509141556 11 236 8.0 11.3 0.00 0.00 0.00 72 1020.1
20260509140556 11 152 1.6 4.8 0.00 0.00 0.00 75 1020.1
20260509135556 10 0.0 0.0 0.00 0.00 0.00 77 1020.1
20260509134556 9 108 0.0 4.8 0.00 0.00 0.00 79 1020.0
20260509133556 8 141 0.0 3.2 0.00 0.00 0.00 78 1019.8
20260509132617 8 53 3.2 9.7 0.00 0.00 0.00 78 1019.6
20260509131557 7 0.0 0.0 0.00 0.00 0.00 78 1019.4